Aérodrome :
LOGIN :

S'inscrire | Disclaimer

   EN    FR    IT 

 










Légende :    VFR   VFR Marginal   IFR   IFR Intensif   IFR Très Intensif
Visi : 
Plafond : 
>= 8 km
>= 3000ft
5 à 8 km
1000 à 3000 ft
1500m à 5 km
500 à 1000 ft
800 à 1500m
200 à 500 ft
< 800m
< 200 ft
Symboles :   Orages  Brouillard  Fortes neiges  Fortes précipitations  Vent > 20 kt
SIGMETs :   Divers  Orages  Givrage  Turbulence  Onde Orograph.  Cendres Volcan.







- Altitude de l'aérodrome : 989 ft
- Code IATA : TRN


LIMF - Torino Caselle

DERNIER METAR :
  • 200150Z 29005KT CAVOK 03/M02 Q1018

METARs EXPIRÉS :
  • 200120Z 28006KT CAVOK 03/M02 Q1018
  • 200050Z 26003KT CAVOK 03/M02 Q1018
  • 200020Z 29003KT 240V310 CAVOK 04/M01 Q1018
  • 192350Z 31004KT CAVOK 03/M01 Q1017
  • 192320Z 30002KT CAVOK 03/M02 Q1017

TAF TAF LIMF
Valide du 20 à 00h jusqu'au 21 à 00h UTC


192300Z 2000/2024 VRB05KT CAVOK
TEMPO 2002/2007 1500 BCFG
Pas de NOTAMs connus pour ce terrain.



MET'MAP, la Météo Aéronautique d'un coup d'oeil ! - Copyright ORBIFLY Décembre 2007 - Disclaimer

ORBIFLY MET'MAP TEAM :

Programmation & Développement : Alexandra Zaïnal
Conception & Développement : Baudouin d'Aumeries
Co-Programmation & Développement : Marc-Olivier Méhu
Soutien technique & logistique : Manuel Goepfert

Contact : metmap@orbifly.com




SOURCES & CREDITS :

   NOAA